Powrót do katalogu

STARLINK-33936

AktywnyŁącznośćVLEO
NORAD 64005·PAYLOAD·🇺🇸 United States

Wystrzelony May 14, 2025 z Cape Canaveral Space Force Station

Loading…

Następne Przeloty (najbliższe 24 godziny)

TLE

ŚwieżeSource: CelesTrak SupGP

Epoka: Sep 14, 2026, 20:59 UTC

1 64005C 25101M   26257.87479167  .00024941  00000+0  90335-3 0  2574
2 64005  43.0037   9.4279 0001429 272.2517 317.6447 15.27566602    10

Śledź STARLINK-33936 w czasie rzeczywistym z AllMySat

Download on the App Store